Springfield, CO

11:37 PM MDT on April 26, 2017 (GMT -0600)
Springfield

Weather History for KSPD - November, 2013

Change the Weather History Date:

Thursday, November 21, 2013

  Actual Average Record
Temperature  
Mean Temperature 32 °F -  
Max Temperature 46 °F 54 °F 73 °F (2012)
Min Temperature 17 °F 24 °F 16 °F (2007)
Degree Days  
Heating Degree Days 33 26  
Month to date heating degree days 389 450  
Since 1 July heating degree days 810 895  
Cooling Degree Days 0 0  
Month to date cooling degree days 0 0  
Year to date cooling degree days 1358 1028  
Moisture  
Dew Point 20 °F    
Average Humidity 82    
Maximum Humidity 96    
Minimum Humidity 67    
Precipitation  
Precipitation 0.00 in 0.02 in 0.06 in (2004)
Month to date precipitation 0.01  
Year to date precipitation 13.51  
Sea Level Pressure  
Sea Level Pressure 30.24 in    
Wind  
Wind Speed 20 mph (North)    
Max Wind Speed 31 mph    
Max Gust Speed 39 mph    
T = Trace of Precipitation, MM = Missing Value Source: NWS Daily Summary

Daily Weather History Graph

Daily Weather History Graph

Search for Another Location

Airport or City:

Trip Planner

Search our weather history database for the weather conditions in past years. The results will help you decide how hot, cold, wet, or windy it might be!

Date:

Astronomy

Nov. 21, 2013 Rise Set
Actual Time 6:36 AM MST 4:36 PM MST
Civil Twilight 6:07 AM MST 5:04 PM MST
Nautical Twilight 5:36 AM MST 5:36 PM MST
Astronomical Twilight 5:05 AM MST 6:07 PM MST
Moon 8:14 PM MST (11/21) 9:44 AM MST (11/21)
Length of Visible Light 10h 56m
Length of Day
10h 00m
Waning Gibbous, 85% of the Moon is Illuminated
Nov 21
Waning Gibbous
Nov 25
Last Quarter
Dec 2
New
Dec 9
First Quarter
Dec 17
Full

Hourly Weather History & Observations

Time (MST) Temp. Windchill Dew Point Humidity Pressure Visibility Wind Dir Wind Speed Gust Speed Precip Events Conditions
12:56 AM 45.0 °F 41.2 °F 37.9 °F 76% 29.76 in - SSE 6.9 mph - N/A   Unknown
1:56 AM 45.0 °F 39.7 °F 39.0 °F 80% 29.76 in - SE 10.4 mph - N/A   Unknown
2:56 AM 43.0 °F 41.3 °F 37.9 °F 82% 29.80 in - WSW 3.5 mph - N/A   Unknown
3:56 AM 39.0 °F 35.7 °F 35.1 °F 86% 29.84 in - NNW 4.6 mph - N/A   Unknown
4:56 AM 42.1 °F 31.9 °F 33.1 °F 70% 29.92 in - NE 26.5 mph 34.5 mph N/A   Unknown
5:56 AM 30.9 °F 17.5 °F 27.0 °F 85% 30.04 in - NNE 24.2 mph 32.2 mph N/A   Unknown
6:56 AM 27.0 °F 12.2 °F 24.1 °F 89% 30.10 in - North 24.2 mph 29.9 mph N/A   Unknown
7:56 AM 25.0 °F 10.9 °F 21.0 °F 85% 30.17 in - North 19.6 mph 27.6 mph N/A   Unknown
8:56 AM 23.0 °F 8.0 °F 21.0 °F 92% 30.19 in - North 20.7 mph - N/A   Unknown
9:56 AM 24.1 °F 9.4 °F 21.9 °F 91% 30.22 in - North 20.7 mph - N/A   Unknown
10:56 AM 23.0 °F 8.0 °F 21.0 °F 92% 30.23 in - North 20.7 mph 26.5 mph N/A   Unknown
11:56 AM 21.9 °F 6.2 °F 19.0 °F 89% 30.25 in - North 21.9 mph 28.8 mph N/A   Unknown
12:56 PM 21.9 °F 6.5 °F 18.0 °F 85% 30.24 in - North 20.7 mph - N/A   Unknown
1:56 PM 21.0 °F 6.2 °F 16.0 °F 81% 30.27 in - North 18.4 mph - N/A   Unknown
2:56 PM 19.9 °F 3.9 °F 15.1 °F 81% 30.30 in - North 20.7 mph 27.6 mph N/A   Unknown
3:56 PM 19.9 °F 4.8 °F 14.0 °F 78% 30.34 in - North 18.4 mph - N/A   Unknown
4:56 PM 19.9 °F 3.9 °F 12.9 °F 74% 30.37 in - North 20.7 mph 28.8 mph N/A   Unknown
5:56 PM 19.0 °F 3.2 °F 12.0 °F 74% 30.45 in - North 19.6 mph 28.8 mph N/A   Unknown
6:56 PM 18.0 °F 0.6 °F 12.0 °F 78% 30.50 in - North 23.0 mph 28.8 mph N/A   Unknown
7:56 PM 18.0 °F 0.2 °F 10.9 °F 74% 30.55 in - North 24.2 mph 31.1 mph N/A   Unknown
8:56 PM 18.0 °F -0.2 °F 9.0 °F 68% 30.57 in - North 25.3 mph - N/A   Unknown
9:56 PM 17.1 °F -1.4 °F 9.0 °F 71% 30.58 in - North 25.3 mph 34.5 mph N/A   Unknown
10:56 PM 17.1 °F -2.0 °F 8.1 °F 68% 30.61 in - North 27.6 mph 35.7 mph N/A   Unknown
11:56 PM 17.1 °F -0.6 °F 9.0 °F 71% 30.63 in - North 23.0 mph 29.9 mph N/A   Unknown